STARLINK-3680, 51969

Orbit data source: Space-Track

STARLINK-3680, 51969 is a payload satellite owned by SpaceX/Seattle (US) in LEO that was launched on Wed, 09 Mar 2022 UTC via an FALCON 9 launch vehicle from the Air Force Eastern Test Range (AFETR). Payload-class satellites include a variety of spacecraft equipped with specific instruments for various scientific and technological missions. These include communications satellites like Starlink; space stations such as the ISS; scientific satellites like the Hubble; Earth observation satellites from companies like Planet Labs, Umbra, and HawkEye 360; GPS; miniature CubeSats for education and research; and military/defense satellites.

Loading next visibility...
Identifier
51969, 2022-025P
Orbit
LEO
Country
Flag of USUS
Related business
Manufacturer
SpaceX/Seattle
Mission
Operational Commercial Communications
Bus & Motor
STARLINK, Unknown motor
Mass
297 kg wet, ~275 kg dry
Launch date (UTC)
2022-03-09 (4 years ago)
Launch vehicle
FALCON 9
Launch site
Air Force Eastern Test Range (AFETR)
Object type
Payload
Rocket body
Debris
Shape & HBR
Box + 1 Pan, 10.1 m
Radar Cross Section
13.562 m², Large (>1 m²)

Expand to show TLE details & history
Last TLE update: 2 days ago

TLE from 2 days ago
0 STARLINK-3680
1 51969U 22025P   26171.40807939  .00001391  00000-0  56598-4 0  9999
2 51969  53.1605 266.4612 0001319  72.2113 287.9033 15.31697590236749
Epoch: 2026-06-20T09:47Z
TLE epoch observation values (Epoch: 2026-06-20T09:47:38.059Z)
Latitude
0.00005°
Longitude
-149.07048°
Altitude
471.37 km
Speed
7.632 km/s
True Right ascension
17h 45m 50s
True Declination
0° 00' 00"
Sunlit
Object was in full shadow at epoch
Visualization orbit readout
Latitude
Unknown
Longitude
Unknown
Altitude
Unknown
Speed
Unknown
Apparent Right ascension
Unknown
Apparent Declination
Unknown
Sunlit
N/A
Visualization observer readout
Local Sidereal Time
21:49:30
Azimuth
Unknown
Elevation
Unknown
Doppler factor
Unknown
Orbital elements
Apogee altitude
471.907 km
Perigee altitude
470.1 km
Semi-major axis
6,849.141 km
Eccentricity
0.00013
Inclination
53.1605°
RAAN
266.4612°
Arg. of periapsis
72.2113°
True anomaly
287.88892°
Mean anomaly
287.9033°
Eccentric anomaly
287.89611°
Mean motion
3.82903 °/min
Orbital period
94.02 mins
BSTAR
0.000056598
Loading maneuver chart data...
Computing Atmospheric mass density...

Documentation

Showing up to 5 results
|